Year,Month,Day,Hour,Minute,Value (Times are PST for temperature in C)
2015,06,14,00,00,12.70
2015,06,14,00,01,12.70
2015,06,14,00,02,12.70
2015,06,14,00,03,12.70
2015,06,14,00,04,12.70
2015,06,14,00,05,12.70
2015,06,14,00,06,12.70
2015,06,14,00,07,12.70
2015,06,14,00,08,12.70
2015,06,14,00,09,12.70
2015,06,14,00,10,12.80
2015,06,14,00,11,12.80
2015,06,14,00,12,12.80
2015,06,14,00,13,12.80
2015,06,14,00,14,12.80
2015,06,14,00,15,12.80
2015,06,14,00,16,12.80
2015,06,14,00,17,12.80
2015,06,14,00,18,12.80
2015,06,14,00,19,12.80
2015,06,14,00,20,12.80
2015,06,14,00,21,12.80
2015,06,14,00,22,12.70
2015,06,14,00,23,12.70
2015,06,14,00,24,12.70
2015,06,14,00,25,12.70
2015,06,14,00,26,12.70
2015,06,14,00,27,12.70
2015,06,14,00,28,12.70
2015,06,14,00,29,12.70
2015,06,14,00,30,12.70
2015,06,14,00,31,12.60
2015,06,14,00,32,12.60
2015,06,14,00,33,12.60
2015,06,14,00,34,12.60
2015,06,14,00,35,12.60
2015,06,14,00,36,12.60
2015,06,14,00,37,12.60
2015,06,14,00,38,12.60
2015,06,14,00,39,12.60
2015,06,14,00,40,12.60
2015,06,14,00,41,12.60
2015,06,14,00,42,12.50
2015,06,14,00,43,12.50
2015,06,14,00,44,12.50
2015,06,14,00,45,12.50
2015,06,14,00,46,12.50
2015,06,14,00,47,12.50
2015,06,14,00,48,12.50
2015,06,14,00,49,12.50
2015,06,14,00,50,12.50
2015,06,14,00,51,12.50
2015,06,14,00,52,12.50
2015,06,14,00,53,12.50
2015,06,14,00,54,12.50
2015,06,14,00,55,12.50
2015,06,14,00,56,12.50
2015,06,14,00,57,12.50
2015,06,14,00,58,12.40
2015,06,14,00,59,12.40
2015,06,14,01,00,12.40
2015,06,14,01,01,12.40
2015,06,14,01,02,12.40
2015,06,14,01,03,12.40
2015,06,14,01,04,12.40
2015,06,14,01,05,12.30
2015,06,14,01,06,12.30
2015,06,14,01,07,12.30
2015,06,14,01,08,12.30
2015,06,14,01,09,12.30
2015,06,14,01,10,12.30
2015,06,14,01,11,12.20
2015,06,14,01,12,12.20
2015,06,14,01,13,12.20
2015,06,14,01,14,12.20
2015,06,14,01,15,12.20
2015,06,14,01,16,12.10
2015,06,14,01,17,12.10
2015,06,14,01,18,12.10
2015,06,14,01,19,12.00
2015,06,14,01,20,12.00
2015,06,14,01,21,11.90
2015,06,14,01,22,11.90
2015,06,14,01,23,11.90
2015,06,14,01,24,11.80
2015,06,14,01,25,11.80
2015,06,14,01,26,11.80
2015,06,14,01,27,11.80
2015,06,14,01,28,11.80
2015,06,14,01,29,11.80
2015,06,14,01,30,11.80
2015,06,14,01,31,11.80
2015,06,14,01,32,11.80
2015,06,14,01,33,11.80
2015,06,14,01,34,11.80
2015,06,14,01,35,11.80
2015,06,14,01,36,11.70
2015,06,14,01,37,11.70
2015,06,14,01,38,11.70
2015,06,14,01,39,11.70
2015,06,14,01,40,11.60
2015,06,14,01,41,11.60
2015,06,14,01,42,11.60
2015,06,14,01,43,11.60
2015,06,14,01,44,11.60
2015,06,14,01,45,11.50
2015,06,14,01,46,11.40
2015,06,14,01,47,11.40
2015,06,14,01,48,11.40
2015,06,14,01,49,11.40
2015,06,14,01,50,11.40
2015,06,14,01,51,11.40
2015,06,14,01,52,11.30
2015,06,14,01,53,11.30
2015,06,14,01,54,11.30
2015,06,14,01,55,11.30
2015,06,14,01,56,11.30
2015,06,14,01,57,11.30
2015,06,14,01,58,11.30
2015,06,14,01,59,11.30
2015,06,14,02,00,11.30
2015,06,14,02,01,11.30
2015,06,14,02,02,11.30
2015,06,14,02,03,11.30
2015,06,14,02,04,11.30
2015,06,14,02,05,11.20
2015,06,14,02,06,11.20
2015,06,14,02,07,11.20
2015,06,14,02,08,11.20
2015,06,14,02,09,11.20
2015,06,14,02,10,11.10
2015,06,14,02,11,11.10
2015,06,14,02,12,11.10
2015,06,14,02,13,11.10
2015,06,14,02,14,11.10
2015,06,14,02,15,11.00
2015,06,14,02,16,10.90
2015,06,14,02,17,10.90
2015,06,14,02,18,10.90
2015,06,14,02,19,10.90
2015,06,14,02,20,10.90
2015,06,14,02,21,10.90
2015,06,14,02,22,10.90
2015,06,14,02,23,10.90
2015,06,14,02,24,10.90
2015,06,14,02,25,10.80
2015,06,14,02,26,10.80
2015,06,14,02,27,10.80
2015,06,14,02,28,10.80
2015,06,14,02,29,10.70
2015,06,14,02,30,10.70
2015,06,14,02,31,10.70
2015,06,14,02,32,10.70
2015,06,14,02,33,10.60
2015,06,14,02,34,10.60
2015,06,14,02,35,10.60
2015,06,14,02,36,10.60
2015,06,14,02,37,10.60
2015,06,14,02,38,10.60
2015,06,14,02,39,10.60
2015,06,14,02,40,10.60
2015,06,14,02,41,10.50
2015,06,14,02,42,10.40
2015,06,14,02,43,10.40
2015,06,14,02,44,10.40
2015,06,14,02,45,10.40
2015,06,14,02,46,10.40
2015,06,14,02,47,10.40
2015,06,14,02,48,10.40
2015,06,14,02,49,10.40
2015,06,14,02,50,10.40
2015,06,14,02,51,10.40
2015,06,14,02,52,10.40
2015,06,14,02,53,10.40
2015,06,14,02,54,10.40
2015,06,14,02,55,10.40
2015,06,14,02,56,10.40
2015,06,14,02,57,10.40
2015,06,14,02,58,10.40
2015,06,14,02,59,10.40
2015,06,14,03,00,10.40
2015,06,14,03,01,10.40
2015,06,14,03,02,10.30
2015,06,14,03,03,10.30
2015,06,14,03,04,10.30
2015,06,14,03,05,10.30
2015,06,14,03,06,10.30
2015,06,14,03,07,10.30
2015,06,14,03,08,10.30
2015,06,14,03,09,10.40
2015,06,14,03,10,10.40
2015,06,14,03,11,10.40
2015,06,14,03,12,10.40
2015,06,14,03,13,10.40
2015,06,14,03,14,10.40
2015,06,14,03,15,10.40
2015,06,14,03,16,10.40
2015,06,14,03,17,10.40
2015,06,14,03,18,10.40
2015,06,14,03,19,10.40
2015,06,14,03,20,10.30
2015,06,14,03,21,10.30
2015,06,14,03,22,10.30
2015,06,14,03,23,10.30
2015,06,14,03,24,10.30
2015,06,14,03,25,10.20
2015,06,14,03,26,10.20
2015,06,14,03,27,10.20
2015,06,14,03,28,10.30
2015,06,14,03,29,10.30
2015,06,14,03,30,10.30
2015,06,14,03,31,10.30
2015,06,14,03,32,10.30
2015,06,14,03,33,10.30
2015,06,14,03,34,10.30
2015,06,14,03,35,10.30
2015,06,14,03,36,10.40
2015,06,14,03,37,10.40
2015,06,14,03,38,10.40
2015,06,14,03,39,10.50
2015,06,14,03,40,10.60
2015,06,14,03,41,10.60
2015,06,14,03,42,10.60
2015,06,14,03,43,10.60
2015,06,14,03,44,10.60
2015,06,14,03,45,10.60
2015,06,14,03,46,10.60
2015,06,14,03,47,10.60
2015,06,14,03,48,10.50
2015,06,14,03,49,10.40
2015,06,14,03,50,10.40
2015,06,14,03,51,10.40
2015,06,14,03,52,10.40
2015,06,14,03,53,10.40
2015,06,14,03,54,10.30
2015,06,14,03,55,10.30
2015,06,14,03,56,10.30
2015,06,14,03,57,10.30
2015,06,14,03,58,10.30
2015,06,14,03,59,10.40
2015,06,14,04,00,10.50
2015,06,14,04,01,10.60
2015,06,14,04,02,10.70
2015,06,14,04,03,10.70
2015,06,14,04,04,10.70
2015,06,14,04,05,10.70
2015,06,14,04,06,10.60
2015,06,14,04,07,10.70
2015,06,14,04,08,10.70
2015,06,14,04,09,10.70
2015,06,14,04,10,10.80
2015,06,14,04,11,10.80
2015,06,14,04,12,10.80
2015,06,14,04,13,10.70
2015,06,14,04,14,10.70
2015,06,14,04,15,10.70
2015,06,14,04,16,10.70
2015,06,14,04,17,10.70
2015,06,14,04,18,10.80
2015,06,14,04,19,10.80
2015,06,14,04,20,10.80
2015,06,14,04,21,10.80
2015,06,14,04,22,10.80
2015,06,14,04,23,10.80
2015,06,14,04,24,10.80
2015,06,14,04,25,10.70
2015,06,14,04,26,10.70
2015,06,14,04,27,10.60
2015,06,14,04,28,10.60
2015,06,14,04,29,10.60
2015,06,14,04,30,10.50
2015,06,14,04,31,10.40
2015,06,14,04,32,10.40
2015,06,14,04,33,10.40
2015,06,14,04,34,10.40
2015,06,14,04,35,10.30
2015,06,14,04,36,10.30
2015,06,14,04,37,10.20
2015,06,14,04,38,10.20
2015,06,14,04,39,10.20
2015,06,14,04,40,10.10
2015,06,14,04,41,10.10
2015,06,14,04,42,10.10
2015,06,14,04,43,10.10
2015,06,14,04,44,10.10
2015,06,14,04,45,10.10
2015,06,14,04,46,10.10
2015,06,14,04,47,10.10
2015,06,14,04,48,10.10
2015,06,14,04,49,10.10
2015,06,14,04,50,10.10
2015,06,14,04,51,10.10
2015,06,14,04,52,10.10
2015,06,14,04,53,10.10
2015,06,14,04,54,10.10
2015,06,14,04,55,10.10
2015,06,14,04,56,10.10
2015,06,14,04,57,10.10
2015,06,14,04,58,10.10
2015,06,14,04,59,10.10
2015,06,14,05,00,10.10
2015,06,14,05,01,10.20
2015,06,14,05,02,10.20
2015,06,14,05,03,10.10
2015,06,14,05,04,10.10
2015,06,14,05,05,10.10
2015,06,14,05,06,10.10
2015,06,14,05,07,10.10
2015,06,14,05,08,10.00
2015,06,14,05,09,9.90
2015,06,14,05,10,9.90
2015,06,14,05,11,9.90
2015,06,14,05,12,9.90
2015,06,14,05,13,9.80
2015,06,14,05,14,9.80
2015,06,14,05,15,9.80
2015,06,14,05,16,9.70
2015,06,14,05,17,9.70
2015,06,14,05,18,9.70
2015,06,14,05,19,9.70
2015,06,14,05,20,9.70
2015,06,14,05,21,9.70
2015,06,14,05,22,9.70
2015,06,14,05,23,9.70
2015,06,14,05,24,9.70
2015,06,14,05,25,9.70
2015,06,14,05,26,9.70
2015,06,14,05,27,9.70
2015,06,14,05,28,9.70
2015,06,14,05,29,9.70
2015,06,14,05,30,9.70
2015,06,14,05,31,9.70
2015,06,14,05,32,9.70
2015,06,14,05,33,9.70
2015,06,14,05,34,9.70
2015,06,14,05,35,9.70
2015,06,14,05,36,9.70
2015,06,14,05,37,9.70
2015,06,14,05,38,9.70
2015,06,14,05,39,9.70
2015,06,14,05,40,9.70
2015,06,14,05,41,9.70
2015,06,14,05,42,9.70
2015,06,14,05,43,9.70
2015,06,14,05,44,9.70
2015,06,14,05,45,9.70
2015,06,14,05,46,9.70
2015,06,14,05,47,9.70
2015,06,14,05,48,9.80
2015,06,14,05,49,9.90
2015,06,14,05,50,9.90
2015,06,14,05,51,9.90
2015,06,14,05,52,10.00
2015,06,14,05,53,10.10
2015,06,14,05,54,10.10
2015,06,14,05,55,10.10
2015,06,14,05,56,10.10
2015,06,14,05,57,10.10
2015,06,14,05,58,10.10
2015,06,14,05,59,10.10
2015,06,14,06,00,10.10
2015,06,14,06,01,10.10
2015,06,14,06,02,10.10
2015,06,14,06,03,10.10
2015,06,14,06,04,10.10
2015,06,14,06,05,10.10
2015,06,14,06,06,10.20
2015,06,14,06,07,10.20
2015,06,14,06,08,10.20
2015,06,14,06,09,10.20
2015,06,14,06,10,10.30
2015,06,14,06,11,10.30
2015,06,14,06,12,10.40
2015,06,14,06,13,10.40
2015,06,14,06,14,10.40
2015,06,14,06,15,10.50
2015,06,14,06,16,10.60
2015,06,14,06,17,10.70
2015,06,14,06,18,10.80
2015,06,14,06,19,10.90
2015,06,14,06,20,11.00
2015,06,14,06,21,11.10
2015,06,14,06,22,11.10
2015,06,14,06,23,11.20
2015,06,14,06,24,11.20
2015,06,14,06,25,11.30
2015,06,14,06,26,11.30
2015,06,14,06,27,11.40
2015,06,14,06,28,11.40
2015,06,14,06,29,11.50
2015,06,14,06,30,11.60
2015,06,14,06,31,11.60
2015,06,14,06,32,11.70
2015,06,14,06,33,11.80
2015,06,14,06,34,11.80
2015,06,14,06,35,11.90
2015,06,14,06,36,12.00
2015,06,14,06,37,12.00
2015,06,14,06,38,12.10
2015,06,14,06,39,12.20
2015,06,14,06,40,12.30
2015,06,14,06,41,12.40
2015,06,14,06,42,12.50
2015,06,14,06,43,12.60
2015,06,14,06,44,12.70
2015,06,14,06,45,12.80
2015,06,14,06,46,12.90
2015,06,14,06,47,13.00
2015,06,14,06,48,13.10
2015,06,14,06,49,13.20
2015,06,14,06,50,13.30
2015,06,14,06,51,13.30
2015,06,14,06,52,13.40
2015,06,14,06,53,13.50
2015,06,14,06,54,13.60
2015,06,14,06,55,13.60
2015,06,14,06,56,13.60
2015,06,14,06,57,13.70
2015,06,14,06,58,13.70
2015,06,14,06,59,13.70
2015,06,14,07,00,13.70
2015,06,14,07,01,13.80
2015,06,14,07,02,13.80
2015,06,14,07,03,13.90
2015,06,14,07,04,13.90
2015,06,14,07,05,14.00
2015,06,14,07,06,14.00
2015,06,14,07,07,14.10
2015,06,14,07,08,14.20
2015,06,14,07,09,14.20
2015,06,14,07,10,14.20
2015,06,14,07,11,14.30
2015,06,14,07,12,14.30
2015,06,14,07,13,14.40
2015,06,14,07,14,14.40
2015,06,14,07,15,14.50
2015,06,14,07,16,14.50
2015,06,14,07,17,14.60
2015,06,14,07,18,14.70
2015,06,14,07,19,14.80
2015,06,14,07,20,14.90
2015,06,14,07,21,15.00
2015,06,14,07,22,15.00
2015,06,14,07,23,15.10
2015,06,14,07,24,15.10
2015,06,14,07,25,15.20
2015,06,14,07,26,15.20
2015,06,14,07,27,15.20
2015,06,14,07,28,15.20
2015,06,14,07,29,15.10
2015,06,14,07,30,15.10
2015,06,14,07,31,15.10
2015,06,14,07,32,15.10
2015,06,14,07,33,15.20
2015,06,14,07,34,15.20
2015,06,14,07,35,15.20
2015,06,14,07,36,15.20
2015,06,14,07,37,15.20
2015,06,14,07,38,15.20
2015,06,14,07,39,15.20
2015,06,14,07,40,15.10
2015,06,14,07,41,14.90
2015,06,14,07,42,14.70
2015,06,14,07,43,14.30
2015,06,14,07,44,13.90
2015,06,14,07,45,13.70
2015,06,14,07,46,13.50
2015,06,14,07,47,13.30
2015,06,14,07,48,13.30
2015,06,14,07,49,13.30
2015,06,14,07,50,13.30
2015,06,14,07,51,13.30
2015,06,14,07,52,13.30
2015,06,14,07,53,13.30
2015,06,14,07,54,13.30
2015,06,14,07,55,13.30
2015,06,14,07,56,13.30
2015,06,14,07,57,13.30
2015,06,14,07,58,13.30
2015,06,14,07,59,13.30
2015,06,14,08,00,13.20
2015,06,14,08,01,13.00
2015,06,14,08,02,12.90
2015,06,14,08,03,12.80
2015,06,14,08,04,12.80
2015,06,14,08,05,12.80
2015,06,14,08,06,12.80
2015,06,14,08,07,12.90
2015,06,14,08,08,12.90
2015,06,14,08,09,13.00
2015,06,14,08,10,13.00
2015,06,14,08,11,13.10
2015,06,14,08,12,13.20
2015,06,14,08,13,13.30
2015,06,14,08,14,13.30
2015,06,14,08,15,13.30
2015,06,14,08,16,13.30
2015,06,14,08,17,13.40
2015,06,14,08,18,13.50
2015,06,14,08,19,13.50
2015,06,14,08,20,13.40
2015,06,14,08,21,13.40
2015,06,14,08,22,13.30
2015,06,14,08,23,13.30
2015,06,14,08,24,13.30
2015,06,14,08,25,13.30
2015,06,14,08,26,13.30
2015,06,14,08,27,13.30
2015,06,14,08,28,13.40
2015,06,14,08,29,13.40
2015,06,14,08,30,13.40
2015,06,14,08,31,13.40
2015,06,14,08,32,13.40
2015,06,14,08,33,13.40
2015,06,14,08,34,13.30
2015,06,14,08,35,13.30
2015,06,14,08,36,13.30
2015,06,14,08,37,13.30
2015,06,14,08,38,13.30
2015,06,14,08,39,13.30
2015,06,14,08,40,13.30
2015,06,14,08,41,13.30
2015,06,14,08,42,13.30
2015,06,14,08,43,13.40
2015,06,14,08,44,13.50
2015,06,14,08,45,13.50
2015,06,14,08,46,13.60
2015,06,14,08,47,13.60
2015,06,14,08,48,13.50
2015,06,14,08,49,13.50
2015,06,14,08,50,13.50
2015,06,14,08,51,13.60
2015,06,14,08,52,13.70
2015,06,14,08,53,13.80
2015,06,14,08,54,13.90
2015,06,14,08,55,14.00
2015,06,14,08,56,14.10
2015,06,14,08,57,14.20
2015,06,14,08,58,14.40
2015,06,14,08,59,14.50
2015,06,14,09,00,14.60
2015,06,14,09,01,14.80
2015,06,14,09,02,14.90
2015,06,14,09,03,15.00
2015,06,14,09,04,15.10
2015,06,14,09,05,15.10
2015,06,14,09,06,15.10
2015,06,14,09,07,15.10
2015,06,14,09,08,15.10
2015,06,14,09,09,15.10
2015,06,14,09,10,15.20
2015,06,14,09,11,15.30
2015,06,14,09,12,15.50
2015,06,14,09,13,15.60
2015,06,14,09,14,15.80
2015,06,14,09,15,15.90
2015,06,14,09,16,16.10
2015,06,14,09,17,16.20
2015,06,14,09,18,16.30
2015,06,14,09,19,16.40
2015,06,14,09,20,16.50
2015,06,14,09,21,16.60
2015,06,14,09,22,16.80
2015,06,14,09,23,16.90
2015,06,14,09,24,17.00
2015,06,14,09,25,17.10
2015,06,14,09,26,17.20
2015,06,14,09,27,17.30
2015,06,14,09,28,17.40
2015,06,14,09,29,17.40
2015,06,14,09,30,17.50
2015,06,14,09,31,17.60
2015,06,14,09,32,17.60
2015,06,14,09,33,17.60
2015,06,14,09,34,17.70
2015,06,14,09,35,17.70
2015,06,14,09,36,17.70
2015,06,14,09,37,17.80
2015,06,14,09,38,17.80
2015,06,14,09,39,17.80
2015,06,14,09,40,17.80
2015,06,14,09,41,17.90
2015,06,14,09,42,17.90
2015,06,14,09,43,17.90
2015,06,14,09,44,18.00
2015,06,14,09,45,18.10
2015,06,14,09,46,18.10
2015,06,14,09,47,18.20
2015,06,14,09,48,18.20
2015,06,14,09,49,18.20
2015,06,14,09,50,18.20
2015,06,14,09,51,18.20
2015,06,14,09,52,18.30
2015,06,14,09,53,18.30
2015,06,14,09,54,18.30
2015,06,14,09,55,18.40
2015,06,14,09,56,18.40
2015,06,14,09,57,18.50
2015,06,14,09,58,18.60
2015,06,14,09,59,18.60
2015,06,14,10,00,18.70
2015,06,14,10,01,18.70
2015,06,14,10,02,18.70
2015,06,14,10,03,18.80
2015,06,14,10,04,18.90
2015,06,14,10,05,18.90
2015,06,14,10,06,18.90
2015,06,14,10,07,18.90
2015,06,14,10,08,18.90
2015,06,14,10,09,18.90
2015,06,14,10,10,18.90
2015,06,14,10,11,18.90
2015,06,14,10,12,18.90
2015,06,14,10,13,19.00
2015,06,14,10,14,19.10
2015,06,14,10,15,19.10
2015,06,14,10,16,19.10
2015,06,14,10,17,19.10
2015,06,14,10,18,19.10
2015,06,14,10,19,19.10
2015,06,14,10,20,19.10
2015,06,14,10,21,19.10
2015,06,14,10,22,19.10
2015,06,14,10,23,19.10
2015,06,14,10,24,19.10
2015,06,14,10,25,19.20
2015,06,14,10,26,19.30
2015,06,14,10,27,19.30
2015,06,14,10,28,19.40
2015,06,14,10,29,19.50
2015,06,14,10,30,19.60
2015,06,14,10,31,19.60
2015,06,14,10,32,19.60
2015,06,14,10,33,19.60
2015,06,14,10,34,19.70
2015,06,14,10,35,19.70
2015,06,14,10,36,19.70
2015,06,14,10,37,19.70
2015,06,14,10,38,19.70
2015,06,14,10,39,19.70
2015,06,14,10,40,19.70
2015,06,14,10,41,19.60
2015,06,14,10,42,19.60
2015,06,14,10,43,19.70
2015,06,14,10,44,19.70
2015,06,14,10,45,19.80
2015,06,14,10,46,19.80
2015,06,14,10,47,19.90
2015,06,14,10,48,19.80
2015,06,14,10,49,19.80
2015,06,14,10,50,19.70
2015,06,14,10,51,19.60
2015,06,14,10,52,19.60
2015,06,14,10,53,19.60
2015,06,14,10,54,19.70
2015,06,14,10,55,19.60
2015,06,14,10,56,19.60
2015,06,14,10,57,19.60
2015,06,14,10,58,19.60
2015,06,14,10,59,19.70
2015,06,14,11,00,19.80
2015,06,14,11,01,19.80
2015,06,14,11,02,19.80
2015,06,14,11,03,19.60
2015,06,14,11,04,19.40
2015,06,14,11,05,19.20
2015,06,14,11,06,18.90
2015,06,14,11,07,18.70
2015,06,14,11,08,18.60
2015,06,14,11,09,18.60
2015,06,14,11,10,18.50
2015,06,14,11,11,18.50
2015,06,14,11,12,18.50
2015,06,14,11,13,18.50
2015,06,14,11,14,18.60
2015,06,14,11,15,18.70
2015,06,14,11,16,18.90
2015,06,14,11,17,19.00
2015,06,14,11,18,19.20
2015,06,14,11,19,19.40
2015,06,14,11,20,19.50
2015,06,14,11,21,19.60
2015,06,14,11,22,19.70
2015,06,14,11,23,19.30
2015,06,14,11,24,19.00
2015,06,14,11,25,18.80
2015,06,14,11,26,18.60
2015,06,14,11,27,18.40
2015,06,14,11,28,18.30
2015,06,14,11,29,18.30
2015,06,14,11,30,18.20
2015,06,14,11,31,18.20
2015,06,14,11,32,18.30
2015,06,14,11,33,18.30
2015,06,14,11,34,18.30
2015,06,14,11,35,18.30
2015,06,14,11,36,18.20
2015,06,14,11,37,18.20
2015,06,14,11,38,18.20
2015,06,14,11,39,18.20
2015,06,14,11,40,18.20
2015,06,14,11,41,18.00
2015,06,14,11,42,17.80
2015,06,14,11,43,17.70
2015,06,14,11,44,17.50
2015,06,14,11,45,17.30
2015,06,14,11,46,17.20
2015,06,14,11,47,17.30
2015,06,14,11,48,17.40
2015,06,14,11,49,17.80
2015,06,14,11,50,17.90
2015,06,14,11,51,18.00
2015,06,14,11,52,18.20
2015,06,14,11,53,18.00
2015,06,14,11,54,17.90
2015,06,14,11,55,17.90
2015,06,14,11,56,17.90
2015,06,14,11,57,17.90
2015,06,14,11,58,18.00
2015,06,14,11,59,18.10
2015,06,14,12,00,18.10
2015,06,14,12,01,18.10
2015,06,14,12,02,18.00
2015,06,14,12,03,18.00
2015,06,14,12,04,18.20
2015,06,14,12,05,18.20
2015,06,14,12,06,18.10
2015,06,14,12,07,18.10
2015,06,14,12,08,18.10
2015,06,14,12,09,18.20
2015,06,14,12,10,18.10
2015,06,14,12,11,18.00
2015,06,14,12,12,17.80
2015,06,14,12,13,17.80
2015,06,14,12,14,17.80
2015,06,14,12,15,17.80
2015,06,14,12,16,17.80
2015,06,14,12,17,17.80
2015,06,14,12,18,17.80
2015,06,14,12,19,17.70
2015,06,14,12,20,17.80
2015,06,14,12,21,18.00
2015,06,14,12,22,18.20
2015,06,14,12,23,18.20
2015,06,14,12,24,18.20
2015,06,14,12,25,18.20
2015,06,14,12,26,18.20
2015,06,14,12,27,18.20
2015,06,14,12,28,18.10
2015,06,14,12,29,18.10
2015,06,14,12,30,18.20
2015,06,14,12,31,18.20
2015,06,14,12,32,18.20
2015,06,14,12,33,18.30
2015,06,14,12,34,18.40
2015,06,14,12,35,18.30
2015,06,14,12,36,18.20
2015,06,14,12,37,18.10
2015,06,14,12,38,18.00
2015,06,14,12,39,17.90
2015,06,14,12,40,17.90
2015,06,14,12,41,17.80
2015,06,14,12,42,17.70
2015,06,14,12,43,17.60
2015,06,14,12,44,17.60
2015,06,14,12,45,17.70
2015,06,14,12,46,17.70
2015,06,14,12,47,17.80
2015,06,14,12,48,17.70
2015,06,14,12,49,17.60
2015,06,14,12,50,17.50
2015,06,14,12,51,17.50
2015,06,14,12,52,17.70
2015,06,14,12,53,17.80
2015,06,14,12,54,17.80
2015,06,14,12,55,17.80
2015,06,14,12,56,17.70
2015,06,14,12,57,17.60
2015,06,14,12,58,17.60
2015,06,14,12,59,17.60
2015,06,14,13,00,17.50
2015,06,14,13,01,17.60
2015,06,14,13,02,17.70
2015,06,14,13,03,17.60
2015,06,14,13,04,17.40
2015,06,14,13,05,17.30
2015,06,14,13,06,17.20
2015,06,14,13,07,17.20
2015,06,14,13,08,17.10
2015,06,14,13,09,17.20
2015,06,14,13,10,17.20
2015,06,14,13,11,17.20
2015,06,14,13,12,17.30
2015,06,14,13,13,17.20
2015,06,14,13,14,17.30
2015,06,14,13,15,17.30
2015,06,14,13,16,17.30
2015,06,14,13,17,17.30
2015,06,14,13,18,17.20
2015,06,14,13,19,17.00
2015,06,14,13,20,16.90
2015,06,14,13,21,16.90
2015,06,14,13,22,17.20
2015,06,14,13,23,17.40
2015,06,14,13,24,17.40
2015,06,14,13,25,17.40
2015,06,14,13,26,17.30
2015,06,14,13,27,17.30
2015,06,14,13,28,17.10
2015,06,14,13,29,17.00
2015,06,14,13,30,17.00
2015,06,14,13,31,17.00
2015,06,14,13,32,17.00
2015,06,14,13,33,17.00
2015,06,14,13,34,17.10
2015,06,14,13,35,17.10
2015,06,14,13,36,17.30
2015,06,14,13,37,17.40
2015,06,14,13,38,17.50
2015,06,14,13,39,17.60
2015,06,14,13,40,17.60
2015,06,14,13,41,17.50
2015,06,14,13,42,17.40
2015,06,14,13,43,17.50
2015,06,14,13,44,17.50
2015,06,14,13,45,17.60
2015,06,14,13,46,17.80
2015,06,14,13,47,17.90
2015,06,14,13,48,18.10
2015,06,14,13,49,18.30
2015,06,14,13,50,18.40
2015,06,14,13,51,18.30
2015,06,14,13,52,18.20
2015,06,14,13,53,18.20
2015,06,14,13,54,18.30
2015,06,14,13,55,18.30
2015,06,14,13,56,18.30
2015,06,14,13,57,18.50
2015,06,14,13,58,18.60
2015,06,14,13,59,18.80
2015,06,14,14,00,18.90
2015,06,14,14,01,18.90
2015,06,14,14,02,19.00
2015,06,14,14,03,19.00
2015,06,14,14,04,18.90
2015,06,14,14,05,18.60
2015,06,14,14,06,18.50
2015,06,14,14,07,18.50
2015,06,14,14,08,18.40
2015,06,14,14,09,18.40
2015,06,14,14,10,18.40
2015,06,14,14,11,18.50
2015,06,14,14,12,18.50
2015,06,14,14,13,18.60
2015,06,14,14,14,18.60
2015,06,14,14,15,18.50
2015,06,14,14,16,18.60
2015,06,14,14,17,18.70
2015,06,14,14,18,18.70
2015,06,14,14,19,18.70
2015,06,14,14,20,18.60
2015,06,14,14,21,18.50
2015,06,14,14,22,18.40
2015,06,14,14,23,18.50
2015,06,14,14,24,18.60
2015,06,14,14,25,18.60
2015,06,14,14,26,18.60
2015,06,14,14,27,18.60
2015,06,14,14,28,18.70
2015,06,14,14,29,18.60
2015,06,14,14,30,18.70
2015,06,14,14,31,18.70
2015,06,14,14,32,18.70
2015,06,14,14,33,18.70
2015,06,14,14,34,18.70
2015,06,14,14,35,18.70
2015,06,14,14,36,18.70
2015,06,14,14,37,18.60
2015,06,14,14,38,18.50
2015,06,14,14,39,18.40
2015,06,14,14,40,18.30
2015,06,14,14,41,18.40
2015,06,14,14,42,18.40
2015,06,14,14,43,18.40
2015,06,14,14,44,18.40
2015,06,14,14,45,18.40
2015,06,14,14,46,18.40
2015,06,14,14,47,18.50
2015,06,14,14,48,18.60
2015,06,14,14,49,18.60
2015,06,14,14,50,18.60
2015,06,14,14,51,18.70
2015,06,14,14,52,18.70
2015,06,14,14,53,18.70
2015,06,14,14,54,18.70
2015,06,14,14,55,18.70
2015,06,14,14,56,18.70
2015,06,14,14,57,18.70
2015,06,14,14,58,18.80
2015,06,14,14,59,18.80
2015,06,14,15,00,18.70
2015,06,14,15,01,18.70
2015,06,14,15,02,18.80
2015,06,14,15,03,19.00
2015,06,14,15,04,19.10
2015,06,14,15,05,19.10
2015,06,14,15,06,19.20
2015,06,14,15,07,19.20
2015,06,14,15,08,19.00
2015,06,14,15,09,18.80
2015,06,14,15,10,18.80
2015,06,14,15,11,18.80
2015,06,14,15,12,18.80
2015,06,14,15,13,18.90
2015,06,14,15,14,19.00
2015,06,14,15,15,19.10
2015,06,14,15,16,19.30
2015,06,14,15,17,19.40
2015,06,14,15,18,19.50
2015,06,14,15,19,19.60
2015,06,14,15,20,19.70
2015,06,14,15,21,19.80
2015,06,14,15,22,19.70
2015,06,14,15,23,19.60
2015,06,14,15,24,19.50
2015,06,14,15,25,19.40
2015,06,14,15,26,19.40
2015,06,14,15,27,19.30
2015,06,14,15,28,19.20
2015,06,14,15,29,19.20
2015,06,14,15,30,19.30
2015,06,14,15,31,19.30
2015,06,14,15,32,19.30
2015,06,14,15,33,19.40
2015,06,14,15,34,19.40
2015,06,14,15,35,19.30
2015,06,14,15,36,19.10
2015,06,14,15,37,19.00
2015,06,14,15,38,18.90
2015,06,14,15,39,19.10
2015,06,14,15,40,19.10
2015,06,14,15,41,19.10
2015,06,14,15,42,19.10
2015,06,14,15,43,19.10
2015,06,14,15,44,19.10
2015,06,14,15,45,19.10
2015,06,14,15,46,19.10
2015,06,14,15,47,19.10
2015,06,14,15,48,19.10
2015,06,14,15,49,19.10
2015,06,14,15,50,19.10
2015,06,14,15,51,19.10
2015,06,14,15,52,19.10
2015,06,14,15,53,19.10
2015,06,14,15,54,19.10
2015,06,14,15,55,19.10
2015,06,14,15,56,19.10
2015,06,14,15,57,19.20
2015,06,14,15,58,19.20
2015,06,14,15,59,19.20
2015,06,14,16,00,19.30
2015,06,14,16,01,19.40
2015,06,14,16,02,19.40
2015,06,14,16,03,19.40
2015,06,14,16,04,19.50
2015,06,14,16,05,19.60
2015,06,14,16,06,19.50
2015,06,14,16,07,19.50
2015,06,14,16,08,19.40
2015,06,14,16,09,19.40
2015,06,14,16,10,19.40
2015,06,14,16,11,19.60
2015,06,14,16,12,19.70
2015,06,14,16,13,19.70
2015,06,14,16,14,19.70
2015,06,14,16,15,19.60
2015,06,14,16,16,19.60
2015,06,14,16,17,19.60
2015,06,14,16,18,19.60
2015,06,14,16,19,19.70
2015,06,14,16,20,19.80
2015,06,14,16,21,20.00
2015,06,14,16,22,20.20
2015,06,14,16,23,20.10
2015,06,14,16,24,20.00
2015,06,14,16,25,19.90
2015,06,14,16,26,19.90
2015,06,14,16,27,19.80
2015,06,14,16,28,19.90
2015,06,14,16,29,19.90
2015,06,14,16,30,19.90
2015,06,14,16,31,19.80
2015,06,14,16,32,19.80
2015,06,14,16,33,19.70
2015,06,14,16,34,19.70
2015,06,14,16,35,19.70
2015,06,14,16,36,19.70
2015,06,14,16,37,19.70
2015,06,14,16,38,19.70
2015,06,14,16,39,19.60
2015,06,14,16,40,19.60
2015,06,14,16,41,19.60
2015,06,14,16,42,19.60
2015,06,14,16,43,19.60
2015,06,14,16,44,19.60
2015,06,14,16,45,19.60
2015,06,14,16,46,19.60
2015,06,14,16,47,19.60
2015,06,14,16,48,19.70
2015,06,14,16,49,19.60
2015,06,14,16,50,19.60
2015,06,14,16,51,19.60
2015,06,14,16,52,19.60
2015,06,14,16,53,19.70
2015,06,14,16,54,19.90
2015,06,14,16,55,20.10
2015,06,14,16,56,20.20
2015,06,14,16,57,20.20
2015,06,14,16,58,20.10
2015,06,14,16,59,20.10
2015,06,14,17,00,20.20
2015,06,14,17,01,20.20
2015,06,14,17,02,20.20
2015,06,14,17,03,20.30
2015,06,14,17,04,20.50
2015,06,14,17,05,20.60
2015,06,14,17,06,20.60
2015,06,14,17,07,20.70
2015,06,14,17,08,20.70
2015,06,14,17,09,20.80
2015,06,14,17,10,20.90
2015,06,14,17,11,20.90
2015,06,14,17,12,20.90
2015,06,14,17,13,20.90
2015,06,14,17,14,20.80
2015,06,14,17,15,20.80
2015,06,14,17,16,20.80
2015,06,14,17,17,20.90
2015,06,14,17,18,20.90
2015,06,14,17,19,21.00
2015,06,14,17,20,21.00
2015,06,14,17,21,20.90